User: anonymous   Login
Location: Unspecified
(0.0000°N, 0.0000°E)
Time: 01:54:20
(UTC+00:00)
Language:

STARLINK-30105 - Orbit

View from above orbital plane
View from above orbital plane
View from above satellite
View from above satellite

Ground track
Ground track

The orbit is defined by the following mean orbital elements,

1 57433U          26145.50667154 +.00000000 +00000-0 -42609-5 0 00004
2 57433  43.0062 317.0070 0003020 268.0833  91.9673 15.27550185    06
Epoch (UTC): 25 May 2026 12:09:36
Eccentricity: 0.0003020
inclination: 43.0062°
perigee height: 481 km
apogee height: 485 km
right ascension of ascending node: 317.0070°
argument of perigee: 268.0833°
revolutions per day: 15.27550185
mean anomaly at epoch: 91.9673°

The dashed part of the orbit path shows where the satellite is in the earth's shadow,  

DLR